Regional Weather Roundup
Issued by NWS

Home | Current Version | Previous Version | Text Only | Print | Product List | Glossary Off
Versions: 1 2 3 4 5 6 7 8 9 10 11 12 13 14 15 16 17 18 19 20 21 22 23 24 25 26 27 28 29 30 31 32 33 34 35 36 37 38 39 40 41 42 43 44 45 46 47 48 49 50

000
ASUS43 KIND 011859
RWRIN

WEATHER ROUNDUP FOR INDIANA
NATIONAL WEATHER SERVICE INDIANAPOLIS IN
300 PM EDT WED OCT 01 2014

NOTE: "FAIR" INDICATES FEW OR NO CLOUDS BELOW 12,000 FEET WITH NO
SIGNIFICANT WEATHER AND/OR OBSTRUCTIONS TO VISIBILITY.

* - STATION DOES NOT REPORT WEATHER SUCH AS PRECIPITATION OR FOG.

+ - STATION NOT QUALITY CONTROLLED BY THE NATIONAL WEATHER SERVICE.
    USE DATA WITH CAUTION...ESPECIALLY DEWPOINT AND RELATIVE
    HUMIDITY OBSERVATIONS.

INZ001>003-010>013-019-020-012000-
NORTHWEST INDIANA

CITY           SKY/WX    TMP DP  RH WIND       PRES   REMARKS
GARY /AIRPORT/ MOSUNNY   70  52  52 SE9       29.97F
RENSSELAER +   SUNNY     72  54  53 E9        29.97F
VALPARAISO     NOT AVBL

$$

LMZ046-743>745-012000-
SOUTHERN LAKE MICHIGAN

STATION/POSITION TIME  TEMP WIND        PRES
                       AIR  DIR/SP/G
                 (UTC) (F)  (DEG/KT/KT) (MB)
MICHIGAN CITY    1800   63  120/  6/  9   N/A

$$

INZ004-005-014>016-021>024-012000-
NORTH CENTRAL INDIANA

CITY           SKY/WX    TMP DP  RH WIND       PRES   REMARKS
ELKHART        SUNNY     64  48  55 SE8       30.02F
GOSHEN         SUNNY     66  51  58 SE10      30.01F
SOUTH BEND     NOT AVBL

$$

INZ006>009-017-018-025>027-012000-
NORTHEAST INDIANA

CITY           SKY/WX    TMP DP  RH WIND       PRES   REMARKS
ANGOLA *+      SUNNY     64  48  55 SE8       30.03F
FORT WAYNE     MOSUNNY   63  52  67 S5        30.03F

$$

INZ028-029-035-036-043>045-051>053-012000-
WEST CENTRAL INDIANA

CITY           SKY/WX    TMP DP  RH WIND       PRES   REMARKS
GREENCASTLE +  SUNNY     73  59  60 S5        29.97F
LAFAYETTE      SUNNY     71  56  58 E7        29.97F
TERRE HAUTE    SUNNY     79  58  48 S8        29.94F

$$

INZ030>032-037>040-046>048-054>057-064-065-012000-
CENTRAL INDIANA

CITY           SKY/WX    TMP DP  RH WIND       PRES   REMARKS
ANDERSON       MOSUNNY   68  48  49 CALM      30.02F
COLUMBUS       SUNNY     75  55  50 CALM      29.98F
INDIANAPOLIS   MOSUNNY   73  55  53 SE6       29.98F
-EAGLE CREEK   SUNNY     72  55  55 E6        29.98F
KOKOMO *+      SUNNY     66  50  55 SE8       30.00F
MT COMFORT *+  SUNNY     73  41  31 SE3       29.99F
SHELBYVILLE    SUNNY     77  55  46 E5        29.98F

$$

INZ033-034-041-042-049-050-058-059-012000-
EAST CENTRAL INDIANA

CITY           SKY/WX    TMP DP  RH WIND       PRES   REMARKS
MUNCIE         SUNNY     66  50  56 SE6       30.02F

$$

INZ060-061-067>069-081>083-085>088-012000-
SOUTHWEST INDIANA

CITY           SKY/WX    TMP DP  RH WIND       PRES   REMARKS
EVANSVILLE     SUNNY     84  56  38 W6        29.93F

$$

INZ062-063-066-070>080-084-089>092-012000-
SOUTH CENTRAL AND SOUTHEAST INDIANA

CITY           SKY/WX    TMP DP  RH WIND       PRES   REMARKS
BLOOMINGTON    SUNNY     76  60  57 E7        29.97F

$$




USA.gov is the U.S. government's official web portal to all federal, state and local government web resources and services.